This demonstration page uses our WeatherBlox Daily Observations layout. Learn more.

Left ArrowRight Arrow

Hourly Observations for April 16, 2015

Temp ( °F °C ) Dew Point ( °F °C ) Humidity (%) Winds ( mph kmh ) Pressure ( in mb ) Visibility ( mi km ) Precip ( " mm )
12:38 am 00:38 Cloudy 57 14 52 11 82 82 ENE 12 19 30.18 1022 10 16 0.00 0.00
12:53 am 00:53 Cloudy 57 13.9 51 10.6 81 81 E 12 19 30.18 1022 10 16 0.00 0.00
1:53 am 01:53 Cloudy 56 13.3 51 10.6 84 84 E 12 19 30.17 1022 10 16 0.00 0.00
2:04 am 02:04 Cloudy 55 13 52 11 88 88 ENE 13 20 30.21 1023 10 16 0.00 0.00
2:53 am 02:53 Cloudy 56 13.3 51 10.6 84 84 ENE 12 19 30.15 1021 10 16 0.00 0.00
3:53 am 03:53 Cloudy 55 12.8 51 10.6 87 87 ENE 12 19 30.18 1022 10 16 0.00 0.00
4:53 am 04:53 Cloudy 54 12.2 50 10 87 87 ENE 13 20 30.19 1022 10 16 0.00 0.00
5:53 am 05:53 Cloudy 54 12.2 50 10 87 87 ENE 12 19 30.19 1023 10 16 0.00 0.00
6:53 am 06:53 Cloudy 54 12.2 50 10 87 87 ENE 14 22 30.19 1023 10 16 0.00 0.00
7:53 am 07:53 Cloudy 54 12.2 50 10 87 87 E 12 19 30.22 1024 10 16 0.00 0.00
8:53 am 08:53 Cloudy 55 12.8 50 10 83 83 ENE 13 20 30.23 1024 10 16 0.00 0.00
9:29 am 09:29 Cloudy 55 12.8 50 10 83 83 E 12 19 30.24 1024 10 16 0.00 0.00
9:53 am 09:53 Cloudy 55 12.8 50 10 83 83 E 10 17 30.23 1024 10 16 0.00 0.00
10:53 am 10:53 Cloudy 55 12.8 49 9.4 80 80 NE 10 17 30.24 1024 10 16 0.00 0.00
11:53 am 11:53 Cloudy 55 12.8 49 9.4 80 80 ENE 14 22 30.27 1025 10 16 0.00 0.00
12:53 pm 12:53 Cloudy 56 13.3 49 9.4 77 77 E 7 11 30.25 1024 10 16 0.00 0.00
1:53 pm 13:53 Cloudy 56 13.3 49 9.4 77 77 E 8 13 30.24 1024 10 16 0.00 0.00
2:53 pm 14:53 Cloudy 56 13.3 50 10 81 81 ENE 9 15 30.22 1024 10 16 0.00 0.00
3:51 pm 15:51 Cloudy with Heavy Rain 55 13 52 11 88 88 VRB 5 7 30.21 1023 2 3 0.09 2.29
3:53 pm 15:53 Cloudy with Heavy Rain 55 12.8 51 10.6 87 87 NE 5 7 30.21 1023 2 3 0.09 2.29
3:59 pm 15:59 Cloudy with Light Rain 55 12.8 51 10.6 87 87 NE 6 9 30.21 1023 6 10 0.01 0.25
4:53 pm 16:53 Cloudy with Light Rain 56 13.3 52 11.1 87 87 NE 6 9 30.19 1022 8 13 0.02 0.51
5:53 pm 17:53 Cloudy 56 13.3 53 11.7 90 90 NE 7 11 30.19 1022 10 16 0.00 0.03
6:53 pm 18:53 Cloudy 56 13.3 53 11.7 90 90 NNE 7 11 30.18 1022 10 16 0.00 0.03
7:53 pm 19:53 Cloudy 56 13.3 53 11.7 90 90 NW 3 6 30.19 1023 10 16 0.00 0.00
8:24 pm 20:24 Cloudy with Light Rain 56 13.3 53 11.7 90 90 Calm 30.21 1023 9 14 0.01 0.25
8:37 pm 20:37 Cloudy with Light Rain 57 13.9 53 11.7 87 87 SSE 3 6 30.18 1022 8 13 0.03 0.76
8:53 pm 20:53 Cloudy with Rain 56 13.3 53 11.7 90 90 E 3 6 30.21 1023 7 11 0.05 1.27
9:46 pm 21:46 Cloudy 55 13 54 12 94 94 E 6 9 30.21 1023 10 16 0.00 0.00
9:53 pm 21:53 Mostly Cloudy with Light Rain 56 13.3 53 11.7 90 90 ENE 7 11 30.19 1022 10 16 0.04 1.02
10:28 pm 22:28 Mostly Cloudy 55 13 54 12 94 94 E 7 11 30.21 1023 10 16 0.00 0.00
10:53 pm 22:53 Cloudy 56 13.3 53 11.7 90 90 NE 6 9 30.18 1022 10 16 0.00 0.03
11:10 pm 23:10 Cloudy 55 13 54 12 94 94 W 3 6 30.21 1023 10 16 0.00 0.00
11:53 pm 23:53 Cloudy 56 13.3 53 11.7 90 90 E 6 9 30.18 1022 10 16 0.00 0.00

Powered by AerisWeather